Location: Alexandria
(38.8050°N, 77.0470°W)
Time: 11:36:28
(UTC-05:00)

N. Korean satellite - Pass Details

Date: 17 November 2017
Orbit: 460 x 514 km, 97.2° (Epoch: 21 November)

Event Time Altitude Azimuth Distance (km) Brightness Sun altitude
Rises 19:09:24 0° 208° (SSW) 2,478 10.6 -26.5°
Reaches altitude 10° 19:12:17 10° 236° (SW) 1,616 9.9 -27.1°
Maximum altitude 19:14:05 14° 268° (W) 1,418 9.8 -27.4°
Drops below altitude 10° 19:15:54 10° 299° (WNW) 1,635 9.9 -27.8°
Sets 19:18:51 0° 327° (NNW) 2,530 10.6 -28.3°
